Showing default

METEOR M2, 40069

Orbit data source: Space-Track

METEOR M2, 40069 is a Commonwealth of Independent States-origin payload satellite in LEO that was launched on Tue, 08 Jul 2014 UTC via a SOYUZ-2-1B launch vehicle from the Tyuratam Missile And Space Complex (TTMTR). Payloads include a variety of satellites, spacecraft, and rockets equipped with specific instruments for various scientific and technological missions. These include communications satellites like Starlink; space stations such as the ISS; scientific satellites like the Hubble; Earth observation satellites from companies like Planet Labs, Umbra, and HawkEye 360; GPS; miniature CubeSats for education and research; and military/defense satellites.

Loading next visibility...
METEOR M2 details
Identifier
40069, 2014-037A
Orbit
LEO
Last TLE update6 hours ago
Origin
Flag of CISRGMS/VNIIEMI (CIS)
ManufacturerVNIIEM
MissionPartially operational Civil Weather
Bus & MotorRESURS-O, Unknown motor
Mass2,879 kg wet, ~2,600 kg dry
Launch date (UTC)
2014-07-08 (10 years ago)
Launch vehicle
SOYUZ-2-1B
Launch site
Tyuratam Missile And Space Complex (TTMTR)
Object type
Payload
Rocket body
Debris
Shape & HBRCyl + 2 Pan, 14 m
Radar Cross Section26.744 m², Large (>1 m²)

Expand to show TLE details & history

TLE from 6 hours ago
0 METEOR M2
1 40069U 14037A   24339.14155395  .00000433  00000-0  21845-3 0  9991
2 40069  98.4508 325.9213 0004943 215.6614 144.4234 14.21154828539763
Epoch: 2024-12-04T03:23Z
Definitive object data (Epoch: 2024-12-04T03:23:50.261Z)
Latitude-0.00004°
Longitude-158.47908°
Altitude827.27 km
Speed7.438 km/s
True Right ascension21h 43m 41s
True Declination0° 00' 00"
Sunlit
Object was in daylight at TLE epoch
Visualization TLE readout
Latitude17.88871°
Longitude24.48743°
Altitude821.666 km
Speed7.445 km/s
Apparent Right ascension12h 57m 49s
Apparent Declination-22° 12' 37"
Sunlit
Object is in daylight
Visualization observer readout
Local Sidereal Time07:07:49
Azimuth108.854° ESE
Elevation-12.215°
Doppler factor1
Orbital elements
Apogee altitude822.152 km
Perigee altitude815.037 km
Semi-major axis7,196.732 km
Eccentricity0.0004943
Inclination98.4508°
RAAN325.9213°
Arg. of periapsis215.6614°
True anomaly144.45634°
Mean anomaly144.4234°
Eccentric anomaly144.43987°
Mean motion3.555 °/min
BSTAR0.00021845
Orbital period101.27 mins
Loading maneuver chart data...
Loading historical data...
Loading historical data...
Loading historical data...
Loading historical data...
Loading historical data...
Loading historical data...
Loading historical data...

METEOR M2 Visibility forecast

Observer location: undefined°, undefined

Span
Click to sort rows by Start time (UTC) header in descending order
Start Az.
Max El. time (UTC)
Max El. Az.
Max El.
End time (UTC)
End Az.
4 mins2024-12-04 10:47:34.320Z70.054° E2024-12-04 10:49:34.320Z93.735° ESE12.927°2024-12-04 10:51:34.320Z116.396° SE
8 mins2024-12-04 12:26:34.320Z5.517° NNE2024-12-04 12:29:34.320Z315.072° NNW43.192°2024-12-04 12:34:34.320Z203.298° SW
6 mins2024-12-04 22:09:34.320Z95.454° ESE2024-12-04 22:11:34.320Z66.58° ENE20.449°2024-12-04 22:15:34.320Z16.809° NNE
9 mins2024-12-04 23:47:34.320Z191.565° SSW2024-12-04 23:51:34.320Z263.897° W36.684°2024-12-04 23:56:34.320Z334.87° NNW
|